• In Russia
  • List of Countries
  • For 7 days
  • Water Temperature
  • Satellite Maps
  • Weather Map
  • Weather Widgets
  • user-avatar
    Login

    Hourly Weather La Massana

    Today, 20 June, Wednesday

    Time Temperature Precipitation Wind Pressure Humidity
    00:00 +10°C° 0 mm 1 mps 615 mmHg 87%
    01:00 +10°C° 0 mm 1 mps 615 mmHg 86%
    02:00 +10°C° 0 mm 1 mps 615 mmHg 85%
    03:00 +10°C° 0 mm 1 mps 614 mmHg 84%
    04:00 +11°C° 0 mm 1 mps 615 mmHg 80%
    05:00 +12°C° 0 mm 1 mps 615 mmHg 77%
    06:00 +14°C° 0 mm 1 mps 616 mmHg 70%
    07:00 +16°C° 0 mm 1 mps 617 mmHg 61%
    08:00 +19°C° 0 mm 1 mps 618 mmHg 53%
    09:00 +19°C° 0 mm 2 mps 618 mmHg 44%
    10:00 +20°C° 0 mm 2 mps 619 mmHg 42%
    11:00 +21°C° 0 mm 2 mps 619 mmHg 41%
    12:00 +23°C° 0 mm 2 mps 619 mmHg 39%
    13:00 +21°C° 0.1 mm 2 mps 619 mmHg 42%
    14:00 +21°C° 0.1 mm 2 mps 618 mmHg 45%
    15:00 +21°C° 0.1 mm 2 mps 618 mmHg 48%
    16:00 +21°C° 0.1 mm 1 mps 618 mmHg 52%
    17:00 +20°C° 0.1 mm 1 mps 617 mmHg 57%
    18:00 +19°C° 0.1 mm 1 mps 617 mmHg 62%
    19:00 +16°C° 0 mm 1 mps 616 mmHg 67%
    20:00 +15°C° 0 mm 1 mps 616 mmHg 72%
    21:00 +13°C° 0 mm 1 mps 615 mmHg 77%
    22:00 +12°C° 0 mm 1 mps 615 mmHg 77%
    23:00 +12°C° 0 mm 1 mps 615 mmHg 78%

    Tomorrow, 21 June, Thursday

    Time Temperature Precipitation Wind Pressure Humidity
    00:00 +12°C° 0 mm 1 mps 615 mmHg 78%
    01:00 +11°C° 0 mm 1 mps 615 mmHg 79%
    02:00 +11°C° 0 mm 1 mps 614 mmHg 80%
    03:00 +11°C° 0 mm 1 mps 614 mmHg 80%
    04:00 +12°C° 0 mm 1 mps 615 mmHg 79%
    05:00 +13°C° 0 mm 1 mps 615 mmHg 77%
    06:00 +14°C° 0 mm 1 mps 616 mmHg 75%
    07:00 +16°C° 0 mm 1 mps 617 mmHg 66%
    08:00 +19°C° 0 mm 1 mps 617 mmHg 56%
    09:00 +21°C° 0 mm 1 mps 618 mmHg 47%
    10:00 +22°C° 0 mm 1 mps 618 mmHg 45%
    11:00 +23°C° 0 mm 1 mps 618 mmHg 43%
    12:00 +23°C° 0 mm 1 mps 619 mmHg 42%
    13:00 +23°C° 0.1 mm 1 mps 618 mmHg 46%
    14:00 +22°C° 0.1 mm 1 mps 617 mmHg 50%
    15:00 +21°C° 0.1 mm 1 mps 617 mmHg 54%
    16:00 +20°C° 0.1 mm 1 mps 617 mmHg 59%
    17:00 +20°C° 0.1 mm 1 mps 616 mmHg 64%
    18:00 +19°C° 0.1 mm 1 mps 616 mmHg 69%
    19:00 +16°C° 0.1 mm 1 mps 615 mmHg 75%
    20:00 +15°C° 0.1 mm 1 mps 615 mmHg 81%
    21:00 +14°C° 0.1 mm 2 mps 615 mmHg 86%
    22:00 +13°C° 0 mm 2 mps 615 mmHg 87%
    23:00 +13°C° 0 mm 2 mps 615 mmHg 87%

    Day after tomorrow, 22 June, Friday

    Time Temperature Precipitation Wind Pressure Humidity
    00:00 +12°C° 0 mm 2 mps 614 mmHg 88%
    01:00 +12°C° 0 mm 2 mps 614 mmHg 88%
    02:00 +12°C° 0 mm 2 mps 614 mmHg 88%
    03:00 +10°C° 0 mm 2 mps 614 mmHg 89%
    04:00 +12°C° 0 mm 2 mps 614 mmHg 87%
    05:00 +13°C° 0 mm 2 mps 614 mmHg 85%
    06:00 +14°C° 0 mm 2 mps 615 mmHg 83%
    07:00 +15°C° 0 mm 2 mps 616 mmHg 76%
    08:00 +17°C° 0 mm 2 mps 616 mmHg 69%
    09:00 +18°C° 0 mm 2 mps 617 mmHg 62%
    10:00 +19°C° 0.1 mm 2 mps 617 mmHg 60%
    11:00 +20°C° 0.1 mm 2 mps 617 mmHg 58%
    12:00 +20°C° 0.1 mm 2 mps 617 mmHg 56%
    13:00 +20°C° 0.8 mm 2 mps 617 mmHg 59%
    14:00 +19°C° 0.8 mm 2 mps 616 mmHg 63%
    15:00 +18°C° 0.8 mm 2 mps 616 mmHg 66%
    16:00 +17°C° 0.5 mm 2 mps 615 mmHg 70%
    17:00 +16°C° 0.5 mm 2 mps 615 mmHg 74%
    18:00 +15°C° 0.5 mm 2 mps 615 mmHg 78%
    19:00 +14°C° 0.2 mm 2 mps 615 mmHg 82%
    20:00 +13°C° 0.2 mm 2 mps 615 mmHg 86%
    21:00 +12°C° 0.2 mm 1 mps 615 mmHg 90%
    22:00 +12°C° 0.1 mm 1 mps 614 mmHg 91%
    23:00 +12°C° 0.1 mm 1 mps 614 mmHg 92%

    23 June, Saturday

    Time Temperature Precipitation Wind Pressure Humidity
    00:00 +11°C° 0.1 mm 1 mps 614 mmHg 93%
    01:00 +11°C° 0 mm 1 mps 614 mmHg 93%
    02:00 +11°C° 0 mm 1 mps 614 mmHg 93%
    03:00 +10°C° 0 mm 1 mps 614 mmHg 93%
    04:00 +11°C° 0 mm 1 mps 614 mmHg 91%
    05:00 +12°C° 0 mm 1 mps 614 mmHg 88%
    06:00 +12°C° 0 mm 1 mps 615 mmHg 86%
    07:00 +14°C° 0 mm 1 mps 615 mmHg 79%
    08:00 +15°C° 0 mm 1 mps 616 mmHg 71%
    09:00 +18°C° 0 mm 1 mps 617 mmHg 64%
    10:00 +18°C° 0.1 mm 1 mps 617 mmHg 62%
    11:00 +19°C° 0.1 mm 1 mps 617 mmHg 60%
    12:00 +18°C° 0.1 mm 2 mps 617 mmHg 58%
    13:00 +19°C° 0.2 mm 1 mps 617 mmHg 57%
    14:00 +19°C° 0.2 mm 1 mps 617 mmHg 57%
    15:00 +19°C° 0.2 mm 1 mps 616 mmHg 56%
    16:00 +19°C° 0.4 mm 1 mps 616 mmHg 60%
    17:00 +18°C° 0.4 mm 1 mps 616 mmHg 64%
    18:00 +16°C° 0.4 mm 1 mps 615 mmHg 68%
    19:00 +15°C° 0.2 mm 1 mps 615 mmHg 73%
    20:00 +13°C° 0.2 mm 1 mps 615 mmHg 78%
    21:00 +12°C° 0.2 mm 1 mps 614 mmHg 83%
    22:00 +11°C° 0 mm 1 mps 614 mmHg 84%
    23:00 +11°C° 0 mm 1 mps 614 mmHg 85%

    24 June, Sunday

    Time Temperature Precipitation Wind Pressure Humidity
    00:00 +11°C° 0 mm 1 mps 614 mmHg 86%
    01:00 +11°C° 0 mm 1 mps 613 mmHg 87%
    02:00 +10°C° 0 mm 1 mps 613 mmHg 88%
    03:00 +10°C° 0 mm 1 mps 613 mmHg 89%
    04:00 +11°C° 0 mm 1 mps 614 mmHg 87%
    05:00 +12°C° 0 mm 1 mps 614 mmHg 85%
    06:00 +12°C° 0 mm 0 mps 615 mmHg 83%
    07:00 +15°C° 0 mm 1 mps 615 mmHg 74%
    08:00 +18°C° 0 mm 1 mps 616 mmHg 65%
    09:00 +20°C° 0 mm 1 mps 617 mmHg 56%
    10:00 +21°C° 0.1 mm 1 mps 617 mmHg 52%
    11:00 +22°C° 0.1 mm 1 mps 617 mmHg 47%
    12:00 +23°C° 0.1 mm 2 mps 618 mmHg 43%
    13:00 +23°C° 0.4 mm 2 mps 618 mmHg 43%
    14:00 +23°C° 0.4 mm 2 mps 617 mmHg 43%
    15:00 +23°C° 0.4 mm 1 mps 617 mmHg 43%
    16:00 +22°C° 0.4 mm 1 mps 617 mmHg 48%
    17:00 +20°C° 0.4 mm 1 mps 616 mmHg 54%
    18:00 +19°C° 0.4 mm 1 mps 616 mmHg 60%
    19:00 +16°C° 0.1 mm 1 mps 615 mmHg 66%
    20:00 +14°C° 0.1 mm 1 mps 614 mmHg 72%
    21:00 +12°C° 0.1 mm 1 mps 614 mmHg 78%
    22:00 +11°C° 0 mm 1 mps 614 mmHg 78%
    23:00 +11°C° 0 mm 1 mps 614 mmHg 79%

    25 June, Monday

    Time Temperature Precipitation Wind Pressure Humidity
    00:00 +11°C° 0 mm 1 mps 613 mmHg 79%
    01:00 +10°C° 0 mm 1 mps 613 mmHg 79%
    02:00 +10°C° 0 mm 1 mps 613 mmHg 79%
    03:00 +10°C° 0 mm 1 mps 613 mmHg 79%
    04:00 +11°C° 0 mm 1 mps 613 mmHg 76%
    05:00 +12°C° 0 mm 1 mps 614 mmHg 74%
    06:00 +13°C° 0 mm 1 mps 615 mmHg 71%
    07:00 +15°C° 0 mm 1 mps 615 mmHg 62%
    08:00 +18°C° 0 mm 1 mps 616 mmHg 54%
    09:00 +20°C° 0 mm 1 mps 617 mmHg 46%
    10:00 +20°C° 0 mm 2 mps 618 mmHg 43%
    11:00 +21°C° 0 mm 2 mps 618 mmHg 41%
    12:00 +23°C° 0 mm 2 mps 618 mmHg 39%
    13:00 +23°C° 0.1 mm 2 mps 618 mmHg 40%
    14:00 +23°C° 0.1 mm 2 mps 618 mmHg 42%
    15:00 +21°C° 0.1 mm 2 mps 617 mmHg 44%
    16:00 +20°C° 0.1 mm 2 mps 617 mmHg 49%
    17:00 +19°C° 0.1 mm 2 mps 617 mmHg 55%
    18:00 +18°C° 0.1 mm 2 mps 616 mmHg 61%
    19:00 +16°C° 0 mm 1 mps 616 mmHg 67%
    20:00 +14°C° 0 mm 1 mps 615 mmHg 74%
    21:00 +12°C° 0 mm 1 mps 615 mmHg 81%
    22:00 +11°C° 0 mm 1 mps 614 mmHg 82%
    23:00 +11°C° 0 mm 1 mps 614 mmHg 82%
    Show more